Location: Pasarilla del Rebollar
(40.6790°N, 5.0062°W)
Time: 11:38:02
(UTC+00:00)

Cosmos 2227 Rocket - Pass Details

Date: 22 April 2026
Orbit: 837 x 845 km, 71.0° (Epoch: 15 May)

Event Time Altitude Azimuth Distance (km) Brightness Sun altitude
Rises 04:54:01 0° 183° (S) 3,381 5.1 -7.5°
Reaches altitude 10° 04:56:32 10° 177° (S) 2,452 4.4 -7.0°
Maximum altitude 05:01:51 44° 106° (ESE) 1,146 3.4 -6.1°
Drops below altitude 10° 05:07:12 10° 36° (NE) 2,471 5.7 -5.1°
Sets 05:09:45 0° 30° (NNE) 3,411 6.3 -4.7°
